Regional Weather Roundup
Issued by NWS Little Rock, AR

Home | Current Version | Previous Version | Graphics & Text | Print | Product List | Glossary On
Versions: 1 2 3 4 5 6 7 8 9 10 11 12 13 14 15 16 17 18 19 20 21 22 23 24 25 26 27
000
ASUS44 KLZK 292005
RWRLZK

WEATHER ROUNDUP FOR ARKANSAS
NATIONAL WEATHER SERVICE LITTLE ROCK AR
300 PM CDT FRI JUL 29 2016

NOTE: "FAIR" INDICATES FEW OR NO CLOUDS BELOW 12,000 FEET WITH NO
SIGNIFICANT WEATHER AND/OR OBSTRUCTIONS TO VISIBILITY.

ARZ001-003-010-029-292100-
NORTHWEST ARKANSAS

CITY           SKY/WX    TMP DP  RH WIND       PRES   REMARKS
FAYETTEVILLE   MOSUNNY   82  71  69 N5        29.99F HX  86
FORT SMITH     PTSUNNY   80  70  71 E7        29.94S
HARRISON       CLOUDY    71  70  96 VRB5      30.02F
BENTONVILLE    MOSUNNY   84  70  61 N7        29.99F HX  88
ROGERS         CLOUDY    84  72  67 N10G18    29.99F HX  89
SILOAM SPGS    MOSUNNY   84  66  54 N9        29.99F HX  86
HIGHFILL       MOSUNNY   86  73  65 N9        29.98F HX  93
SPRINGDALE     MOSUNNY   82  72  69 NW7G13    30.00F HX  87
$$

ARZ004-005-016-292100-
NORTH CENTRAL ARKANSAS

CITY           SKY/WX    TMP DP  RH WIND       PRES   REMARKS
BATESVILLE     CLOUDY    73  72  94 SE6       29.95S
FLIPPIN        CLOUDY    73  68  83 S3        30.00R THUNDER
MTN HOME       TSTM      73  72  96 CALM      30.03R FOG
$$

ARZ040-041-292100-
WEST CENTRAL ARKANSAS

CITY           SKY/WX    TMP DP  RH WIND       PRES   REMARKS
MENA             N/A    N/A N/A N/A MISG        N/A
MOUNT IDA      MOSUNNY   83  70  64 VRB3      29.95S HX  87
$$

ARZ009-017-025-026-028-292100-
NORTHEAST ARKANSAS

CITY           SKY/WX    TMP DP  RH WIND       PRES   REMARKS
CORNING          N/A     90  77  66 W6        29.92S HX 102
JONESBORO      CLOUDY    82  76  81 S7        29.92F HX  89
NEWPORT        CLOUDY    84  78  82 S6        29.94S HX  94
WALNUT RIDGE   MOSUNNY   84  75  74 S9        29.92R HX  92
BLYTHEVILLE    CLOUDY    83  76  79 S9        29.93F HX  91
NW BLYTHEVILLE PTSUNNY   84  75  74 S8        29.92F HX  92
$$

ARZ022-023-033-042-044-292100-
CENTRAL ARKANSAS

CITY           SKY/WX    TMP DP  RH WIND       PRES   REMARKS
LITTLE ROCK    PTSUNNY   93  76  57 SW13G21   29.92F HX 105
N LITTLE ROCK    N/A     89  77  66 SW6       29.89F HX 101
JACKSONVILLE   CLOUDY    93  76  56 S13G21    29.91S HX 105
SEARCY         TSTM      73  70  90 NW8G17    29.96R FOG
HOT SPRINGS    CLOUDY    84  70  62 N8G18     29.94S THUNDER HX  88
RUSSELLVILLE   CLOUDY    76  73  91 E3        29.95R
$$

ARZ036-292100-
EAST ARKANSAS

CITY           SKY/WX    TMP DP  RH WIND       PRES   REMARKS
WEST MEMPHIS   CLOUDY    85  77  77 MISG      29.92F HX  95
$$

ARZ050-053-066-070-073-292100-
SOUTHWEST ARKANSAS

CITY           SKY/WX    TMP DP  RH WIND       PRES   REMARKS
ARKADELPHIA    FAIR      92  76  59 SW13      29.94F HX 104
CAMDEN         CLOUDY    91  75  59 SW9       29.94F HX 102
TEXARKANA      MOSUNNY   93  74  53 SW9       29.95F HX 103
EL DORADO      MOSUNNY   90  75  61 SW9       29.97F HX 100
DE QUEEN       CLOUDY    91  77  63 S7        29.92F THUNDER HX 104
$$

ARZ056-057-069-292100-
SOUTHEAST ARKANSAS

CITY           SKY/WX    TMP DP  RH WIND       PRES   REMARKS
PINE BLUFF     PTSUNNY   88  75  65 SW8       29.93F HX  97
STUTTGART      MOSUNNY   91  73  55 SW12G17   29.92F HX 100
MONTICELLO     CLOUDY    91  76  61 VRB7      29.95F HX 103

$$






USA.gov is the U.S. government's official web portal to all federal, state and local government web resources and services.